AQI (31)

Current Conditions for Foresthill, CA. Overcast, Heavy Rain   
Visibility: 1/4 mile
Windy            
Cloud ht: 1136 ft
Space WX Alerts: ALERT:  Geomagnetic K-index of 4 ( Latest Alert ) - Issue Time: 2021 Oct 19 1803 UTC

  Summary / Temperature 

Current Temperature
50.6°F
10.3°C
(24/hr Ago)
50.3°F
(Apparent temp)
39.9°F
Cool
Wind Chill Graphs
46.8°F 

52.8°F/ 11.6°C
 --- Virtual Temp: 53.2°F ---

 Temp Rate:

 24/hr Difference:

 Avg Running Temp:

 Todays High:

 Todays Low:

 Y-days High:

 Y-days Low:

 Todays WChill:

 Y-days WChill:

 Evapotranspiration:

-0.1°F/hr 

+0.3°F

50.6°F

51.1°F 10:23am

45.4°F 12:09am

51.4°F 1:55pm

43.8°F 7:30am

37.0°F 12:32am

37.6°F 11:38pm

0.006 in

115' Above Ground

 Temperature:

 6'AGL VRS 115'AGL:

 Avg Running Temp:

 Humidity:

 Todays High:

 Todays Low:

 Y-days High:

 Y-days Low:

91.0°F 

+40.4°F

91.0°F

0% 

91.0°F 12:00am

91.0°F 12:00am

93.0°F 1:50pm

46.0°F 4:29pm

Temp & Humidity Graphs

  Wind 

Wind Speed

 15.0 mph

Gusting to

 39.0 mph

Wind from SSE

171°  S

Moderate breeze

 Avg speed:

 Wind Run:

 Peak Gust:

  19.0 mph 

209.0 miles

  42.0 mph 2:24pm

  Almanac  

Moon age: 18 days,15 hours,10 minutes,84%

Waning Gibbous
84%
Illuminated
18 days in cycle

 Moonrise:

 Moonset:

 Sunrise:

 Sunset:

 Solar Noon:

8:42pm

11:16am

7:23am

6:12pm

12:48pm

2min 22s less daylight tomorrow 

  Solar Radiation 

(Current Solar)
  11 W/m2 (2%)
(Todays High)
 46 W/m2@12:20pm
Feels like: 46.6°F in the sun

Rain

 Rain Today:

 Rain Rate (/hr):

 Rain last hour:

 Rain Yesterday:

 This Month:

 Season Total:

4 Days Since Last Dry Day

3.49 in

0.425 in

0.34 in

0.36 in

6.86 in

7.81 in

Updated Time

Updated: 10/24/21  3:20pm

(Updated  sec ago)

Humidity & Barometer

 Humidity:

 Wetbulb:

 Dew Point:

 Barometer:

97% 

50.2°F 

49.8°F 

29.612 inHg 

 Baro Trend:  Falling Slowly 
Northern Calif
Preparedness
Fire 
Level 

    UV Index  

(Current UV)
0.0  None
(Todays High) @ 12:00am
0.0   None

National Weather Service Forecast

This
Afternoon
This Afternoon: Heavy Rain
Heavy Rain
Tonight

Tonight: Heavy Rain then Rain Showers
Heavy Rain
Monday

Monday: Rain Showers
Rain Showers
Monday
Night
Monday Night: Chance Rain Showers
Chance Rain Showers
Tuesday

Tuesday: Partly Sunny then Slight Chance Rain Showers
Partly Sunny
Tuesday
Night
Tuesday Night: Slight Chance Rain Showers
Slight Chance Rain Showers
Hi 52 °F Lo 45 °F ↑ Hi 48 °F ↓ Lo 42 °F Hi 52 °F Lo 46 °F

Foresthill Probe 2 Stats  
Foresthill Probe 2: is located on Thomas Street
at 3000 feet. The main Foresthill Weather site
is located on Melody ln at the 2860 foot elevation

Light Air
50.0°F
10°C
Temp Rate:
-0.1°F
1.0 mph
Gusting to
12.0 mph
(Humidity)
100%
Wind from SSE
160°  SSE
Updated: 24/10/21 - 15:20:41
 Todays High: 50.4°F 10:15
 Todays Low: 44.9°F 00:15
 Rain Today: 3.44 in
 Season Total: 8.03 in

Foresthill Wx: Monthly,Yearly, Highs and Lows 

Foresthill  
This Weather Data is coming from the main Foresthill
Weather site located on Melody ln at the 2860 foot
elevation
Not Foresthill Probe 2
Weather Data
Month
  High
Month
  Low
Year
High
Year
Low
Temp 87.6°F
10/4/21
39.1°F
10/11/21
103.9°F
6/18/21
25.3°F
1/26/21
Humidity 100%
10/24/21
9%
10/4/21
100%
1/3/21
5%
7/12/21
Heat Index 84.0°F
10/4/21
39.0°F
10/12/21
101.4°F
6/27/21
31.2°F
1/26/21
Wind Chill 87.6°F
10/4/21
30.1°F
10/19/21
103.9°F
6/18/21
12.5°F
1/26/21
Wind Gust 42 mph
10/24/21
0 mph
10/1/21
50 mph
1/19/21
0 mph
1/1/21
Barometer 30.24 in
10/9/21
29.61 in
10/24/21
30.52 in
2/21/21
29.61 in
10/24/21
ET 0.18 in
10/4/21
0.00 in
10/1/21
0.33 in
7/12/21
0.00 in
1/1/21
Dew Point 59.6°F
10/21/21
12.6°F
10/12/21
64.9°F
9/10/21
3.6°F
2/24/21
Visible Satellite Pacific Satellite US Radar Satellite Imagery Sacramento,CA.  (click to enlarge)
NWS Weather Forecast - Summary
Updated: Sunday, October 24, 2021 - 2:41pm PDT
Flash Flood and Flood Watches in Effect into Monday For Heavy Rain
NWS Weather Forecast: This Afternoon and Tonight (Updated: Sun, 24-Oct-2021 2:27pm PDT)
This
Afternoon
This Afternoon: Heavy Rain
Heavy Rain

Hi 52 °F
NWS forecast: Rain. Cloudy, with a high near 52. South wind 32 to 37 mph, with gusts as high as 55 mph. Chance of precipitation is 100%. New rainfall amounts in excess of 4 inches possible.
Tonight

Tonight: Heavy Rain then Rain Showers
Heavy Rain

Lo 45 °F ↑
NWS forecast: Rain before 11pm, then rain showers. Cloudy. Low around 45, with temperatures rising to around 48 overnight. South southwest wind 14 to 32 mph, with gusts as high as 48 mph. Chance of precipitation is 100%. New rainfall amounts in excess of 4 inches possible.
YR.NO 10 Day Weather forecast
Last update: 10/24/2021 @ 06:29
Next update: 10/24/2021 @ 12:29
Provided by: 22
      Temperature Precipitation Pressure Wind  
Today
10/24/2021
13:00 18:00 50°F 0.39 in 29.62 inHg Moderate breeze from south 17 mph
  18:00 00:00 50°F 1.45 in 29.61 inHg Moderate breeze from south-southwest 14 mph
    (Click to enlarge)
meteogram

    Forecast for next 9 days

      Temperature Precip Pressure Wind  
Monday
10/25/2021
00:00 06:00 48°F 0.76 in 29.68 inHg Gentle breeze from south-southwest 10 mph
  06:00 12:00 45°F 0.75 in 29.69 inHg Gentle breeze from south 10 mph
  12:00 18:00 45°F 0.29 in 29.83 inHg Light breeze from south-southwest 6 mph
  18:00 00:00 43°F < 0.01 in 29.93 inHg Light breeze from southeast 4 mph
      Temperature Precip Pressure Wind  
Tuesday
10/26/2021
00:00 06:00 41°F   30.06 inHg Light breeze from southeast 5 mph
  06:00 12:00 39°F   30.14 inHg Light breeze from east-southeast 4 mph
  12:00 18:00 50°F   30.23 inHg Light air from south 3 mph
  17:00 23:00 50°F   30.23 inHg Light air from southwest 3 mph
  23:00 05:00 48°F 0.02 in 30.29 inHg Light air from east 2 mph
      Temperature Precip Pressure Wind  
Wednesday
10/27/2021
05:00 11:00 50°F   30.28 inHg Light air from east 3 mph
  11:00 17:00 61°F   30.31 inHg Light air from west-northwest 2 mph
  17:00 23:00 61°F   30.24 inHg Light breeze from west-northwest 4 mph
  23:00 05:00 50°F   30.20 inHg Gentle breeze from east-northeast 8 mph
      Temperature Precip Pressure Wind  
Thursday
10/28/2021
05:00 11:00 48°F   30.17 inHg Light breeze from east-northeast 6 mph
  11:00 17:00 66°F   30.17 inHg Light air from southwest 2 mph
  17:00 23:00 64°F   30.09 inHg Calm from north-northwest 0 mph
  23:00 05:00 48°F   30.07 inHg Light breeze from east 6 mph
      Temperature Precip Pressure Wind  
Friday
10/29/2021
05:00 11:00 46°F   30.01 inHg Light breeze from east 5 mph
  11:00 17:00 70°F   30.00 inHg Light air from south 2 mph
  17:00 23:00 66°F   29.94 inHg Light air from southwest 2 mph
  23:00 05:00 52°F   29.94 inHg Light breeze from east-southeast 4 mph
      Temperature Precip Pressure Wind  
Saturday
10/30/2021
05:00 11:00 48°F   29.96 inHg Light air from east-southeast 3 mph
  11:00 17:00 55°F   30.02 inHg Light breeze from west-southwest 5 mph
  17:00 23:00 57°F   29.98 inHg Light breeze from southwest 4 mph
  23:00 05:00 41°F   30.00 inHg Light air from east 3 mph
      Temperature Precip Pressure Wind  
Sunday
10/31/2021
05:00 11:00 39°F   29.97 inHg Light breeze from east 4 mph
  11:00 17:00 61°F   30.03 inHg Light breeze from southwest 4 mph
  17:00 23:00 54°F   30.05 inHg Light breeze from west 4 mph
  23:00 05:00 45°F   30.09 inHg Light air from east 1 mph
      Temperature Precip Pressure Wind  
Monday
11/01/2021
05:00 11:00 41°F   30.08 inHg Light breeze from east 4 mph
  11:00 17:00 61°F   30.12 inHg Light air from west 2 mph
  17:00 23:00 59°F   30.08 inHg Light air from west-southwest 2 mph
  23:00 05:00 45°F   30.14 inHg Light air from east 3 mph
      Temperature Precip Pressure Wind  
Tuesday
11/02/2021
05:00 11:00 43°F   30.12 inHg Light breeze from east 4 mph

NOAA Local Storm Report
PAXTON   ( More )
DATE
10/24/2021
TIME
6:55 AM
COUNTY
PLUMAS
STATE
CA
GEOGRAPHIC
40.04N 120.99W
SOURCE
DEPT OF HIGHWAYS
DEBRIS FLOW
highway 70 road closure from jarbo gap to the greenville wye due to multiple slides and debris flow.
How Close Are We To this Month's Temperature Record ?
Updated Sunday, Oct 24, 2021- 3:20:01 PM

Current Temperature: 50.6°F

October's High: Temperature Record 90.7°F - Set on Thu, Oct 1, 2020 - 2:42:00 PM
We are currently 40.1°F Less than this Month's record High

October's Low: Temperature Record 38.8°F - Set on Tue, Oct 23, 2012 - 11:59:00 PM
We are currently 11.8°F More than this Month's record Low

Weather History For Sunday, October 24, 2021


On this Day - In Weather History ...
Data courtesy of weatherforyou.com
powered by Cumulus v1.9.3 (1059)
Ambient Weather VWS v14.00
Top Website Map Copyright © 2007 - 2021 Foresthillweather.com Never base important decisions on this or any weather information obtained from the Internet